iso_date,epoch_date,Year,Hour,Min,DOY,POS_DOY,Lat,Lon,BP,Ts,Ta,has_bp,has_ts,has_ta,BuoyID,Buoy_Type,Buoy_Owner,Logistics,Hemisphere
2017-01-10T13:24:57Z,1484054698,2017,13,25,10.559,10.559,-71.3904,-14.2714,998.0,7.3,-999.0,yes,yes,no,300234062887950,SVP,AWI-USIABP,unknown,South
2017-01-10T13:59:31Z,1484056771,2017,14,0,10.583,10.583,-71.3924,-14.2754,997.9,7.2,-999.0,yes,yes,no,300234062887950,SVP,AWI-USIABP,unknown,South
2017-01-10T15:00:00Z,1484060400,2017,15,0,10.625,10.625,-71.395,-14.2822,998.0,7.6,-999.0,yes,yes,no,300234062887950,SVP,AWI-USIABP,unknown,South
2017-01-10T16:00:28Z,1484064029,2017,16,0,10.667,10.667,-71.3976,-14.29,999.7,4.7,-999.0,yes,yes,no,300234062887950,SVP,AWI-USIABP,unknown,South
2017-01-10T16:59:31Z,1484067571,2017,17,0,10.708,10.708,-71.3994,-14.2996,1000.0,6.5,-999.0,yes,yes,no,300234062887950,SVP,AWI-USIABP,unknown,South
2017-01-10T18:00:00Z,1484071200,2017,18,0,10.75,10.75,-71.4012,-14.3114,1000.2,5.2,-999.0,yes,yes,no,300234062887950,SVP,AWI-USIABP,unknown,South
2017-01-10T19:00:28Z,1484074829,2017,19,0,10.792,10.792,-71.4028,-14.3264,1000.2,1.5,-999.0,yes,yes,no,300234062887950,SVP,AWI-USIABP,unknown,South
2017-01-10T19:59:31Z,1484078371,2017,20,0,10.833,10.833,-71.4054,-14.3426,999.1,0.3,-999.0,yes,yes,no,300234062887950,SVP,AWI-USIABP,unknown,South
2017-01-10T21:00:00Z,1484082000,2017,21,0,10.875,10.875,-71.408,-14.3582,999.4,-0.2,-999.0,yes,yes,no,300234062887950,SVP,AWI-USIABP,unknown,South
2017-01-10T22:00:28Z,1484085629,2017,22,0,10.917,10.917,-71.4106,-14.3706,999.6,-0.6,-999.0,yes,yes,no,300234062887950,SVP,AWI-USIABP,unknown,South
2017-01-10T22:59:31Z,1484089171,2017,23,0,10.958,10.958,-71.4134,-14.38,999.7,-1.1,-999.0,yes,yes,no,300234062887950,SVP,AWI-USIABP,unknown,South
2017-01-11T00:00:00Z,1484092800,2017,0,0,11.0,11.0,-71.4168,-14.3868,999.8,-1.4,-999.0,yes,yes,no,300234062887950,SVP,AWI-USIABP,unknown,South
2017-01-11T01:00:28Z,1484096429,2017,1,0,11.042,11.042,-71.4206,-14.3912,1000.1,-2.1,-999.0,yes,yes,no,300234062887950,SVP,AWI-USIABP,unknown,South
2017-01-11T01:59:31Z,1484099971,2017,2,0,11.083,11.083,-71.4246,-14.3946,1000.1,-2.9,-999.0,yes,yes,no,300234062887950,SVP,AWI-USIABP,unknown,South
2017-01-11T03:00:00Z,1484103600,2017,3,0,11.125,11.125,-71.4266,-14.3992,1000.3,-2.5,-999.0,yes,yes,no,300234062887950,SVP,AWI-USIABP,unknown,South
2017-01-11T04:00:28Z,1484107229,2017,4,0,11.167,11.167,-71.4272,-14.4044,1000.3,-1.7,-999.0,yes,yes,no,300234062887950,SVP,AWI-USIABP,unknown,South
2017-01-11T04:59:31Z,1484110771,2017,5,0,11.208,11.208,-71.4284,-14.4126,1000.2,-1.3,-999.0,yes,yes,no,300234062887950,SVP,AWI-USIABP,unknown,South
2017-01-11T06:00:00Z,1484114400,2017,6,0,11.25,11.25,-71.4298,-14.4234,1000.2,-0.1,-999.0,yes,yes,no,300234062887950,SVP,AWI-USIABP,unknown,South
2017-01-11T07:00:28Z,1484118029,2017,7,0,11.292,11.292,-71.4312,-14.4356,1000.3,-0.1,-999.0,yes,yes,no,300234062887950,SVP,AWI-USIABP,unknown,South
2017-01-11T07:59:31Z,1484121571,2017,8,0,11.333,11.333,-71.433,-14.4482,1000.4,0.5,-999.0,yes,yes,no,300234062887950,SVP,AWI-USIABP,unknown,South
2017-01-11T09:00:00Z,1484125200,2017,9,0,11.375,11.375,-71.4352,-14.4598,1000.6,1.9,-999.0,yes,yes,no,300234062887950,SVP,AWI-USIABP,unknown,South
2017-01-11T10:00:28Z,1484128829,2017,10,0,11.417,11.417,-71.4382,-14.471,1000.6,1.3,-999.0,yes,yes,no,300234062887950,SVP,AWI-USIABP,unknown,South
2017-01-11T10:59:31Z,1484132371,2017,11,0,11.458,11.458,-71.442,-14.4812,1000.6,3.4,-999.0,yes,yes,no,300234062887950,SVP,AWI-USIABP,unknown,South
2017-01-11T12:00:00Z,1484136000,2017,12,0,11.5,11.5,-71.4452,-14.4878,1000.7,9.4,-999.0,yes,yes,no,300234062887950,SVP,AWI-USIABP,unknown,South
2017-01-11T13:00:28Z,1484139629,2017,13,0,11.542,11.542,-71.4468,-14.4928,1000.7,11.3,-999.0,yes,yes,no,300234062887950,SVP,AWI-USIABP,unknown,South
2017-01-11T13:59:31Z,1484143171,2017,14,0,11.583,11.583,-71.448,-14.4976,1000.6,10.6,-999.0,yes,yes,no,300234062887950,SVP,AWI-USIABP,unknown,South
2017-01-11T15:00:00Z,1484146800,2017,15,0,11.625,11.625,-71.4496,-14.5036,1000.7,7.2,-999.0,yes,yes,no,300234062887950,SVP,AWI-USIABP,unknown,South
2017-01-11T16:00:28Z,1484150429,2017,16,0,11.667,11.667,-71.4516,-14.5108,1000.5,6.1,-999.0,yes,yes,no,300234062887950,SVP,AWI-USIABP,unknown,South
2017-01-11T16:59:31Z,1484153971,2017,17,0,11.708,11.708,-71.4542,-14.52,1000.4,5.2,-999.0,yes,yes,no,300234062887950,SVP,AWI-USIABP,unknown,South
2017-01-11T18:00:00Z,1484157600,2017,18,0,11.75,11.75,-71.4572,-14.5308,1000.4,5.7,-999.0,yes,yes,no,300234062887950,SVP,AWI-USIABP,unknown,South
2017-01-11T19:00:28Z,1484161229,2017,19,0,11.792,11.792,-71.46,-14.5424,1000.3,4.7,-999.0,yes,yes,no,300234062887950,SVP,AWI-USIABP,unknown,South
2017-01-11T19:59:31Z,1484164771,2017,20,0,11.833,11.833,-71.4628,-14.5536,1000.4,5.1,-999.0,yes,yes,no,300234062887950,SVP,AWI-USIABP,unknown,South
2017-01-11T21:00:00Z,1484168400,2017,21,0,11.875,11.875,-71.465,-14.5638,1000.3,7.4,-999.0,yes,yes,no,300234062887950,SVP,AWI-USIABP,unknown,South
2017-01-11T22:00:28Z,1484172029,2017,22,0,11.917,11.917,-71.4668,-14.5724,1000.5,4.0,-999.0,yes,yes,no,300234062887950,SVP,AWI-USIABP,unknown,South
2017-01-11T22:59:31Z,1484175571,2017,23,0,11.958,11.958,-71.4686,-14.5806,1000.4,2.5,-999.0,yes,yes,no,300234062887950,SVP,AWI-USIABP,unknown,South
2017-01-12T00:00:00Z,1484179200,2017,0,0,12.0,12.0,-71.4704,-14.5872,1000.4,0.6,-999.0,yes,yes,no,300234062887950,SVP,AWI-USIABP,unknown,South
2017-01-12T01:00:28Z,1484182829,2017,1,0,12.042,12.042,-71.473,-14.592,1000.4,0.2,-999.0,yes,yes,no,300234062887950,SVP,AWI-USIABP,unknown,South
2017-01-12T01:59:31Z,1484186371,2017,2,0,12.083,12.083,-71.4754,-14.5942,1000.4,-0.6,-999.0,yes,yes,no,300234062887950,SVP,AWI-USIABP,unknown,South
2017-01-12T03:00:00Z,1484190000,2017,3,0,12.125,12.125,-71.4766,-14.5972,999.9,-1.4,-999.0,yes,yes,no,300234062887950,SVP,AWI-USIABP,unknown,South
2017-01-12T04:00:28Z,1484193629,2017,4,0,12.167,12.167,-71.4778,-14.6014,1000.0,-0.8,-999.0,yes,yes,no,300234062887950,SVP,AWI-USIABP,unknown,South
2017-01-12T04:59:31Z,1484197171,2017,5,0,12.208,12.208,-71.4792,-14.6078,999.9,-0.6,-999.0,yes,yes,no,300234062887950,SVP,AWI-USIABP,unknown,South
2017-01-12T06:00:00Z,1484200800,2017,6,0,12.25,12.25,-71.4812,-14.6162,999.7,-0.1,-999.0,yes,yes,no,300234062887950,SVP,AWI-USIABP,unknown,South
2017-01-12T07:00:28Z,1484204429,2017,7,0,12.292,12.292,-71.4834,-14.6274,999.7,0.2,-999.0,yes,yes,no,300234062887950,SVP,AWI-USIABP,unknown,South
2017-01-12T07:59:31Z,1484207971,2017,8,0,12.333,12.333,-71.486,-14.6416,999.7,0.5,-999.0,yes,yes,no,300234062887950,SVP,AWI-USIABP,unknown,South
2017-01-12T09:00:00Z,1484211600,2017,9,0,12.375,12.375,-71.489,-14.657,999.6,0.3,-999.0,yes,yes,no,300234062887950,SVP,AWI-USIABP,unknown,South
2017-01-12T10:00:28Z,1484215229,2017,10,0,12.417,12.417,-71.4926,-14.6724,999.4,0.7,-999.0,yes,yes,no,300234062887950,SVP,AWI-USIABP,unknown,South
2017-01-12T10:59:31Z,1484218771,2017,11,0,12.458,12.458,-71.4968,-14.685,999.4,1.9,-999.0,yes,yes,no,300234062887950,SVP,AWI-USIABP,unknown,South
2017-01-12T12:00:00Z,1484222400,2017,12,0,12.5,12.5,-71.5014,-14.6958,999.3,3.2,-999.0,yes,yes,no,300234062887950,SVP,AWI-USIABP,unknown,South
2017-01-12T13:00:28Z,1484226029,2017,13,0,12.542,12.542,-71.5064,-14.7076,999.4,2.8,-999.0,yes,yes,no,300234062887950,SVP,AWI-USIABP,unknown,South
2017-01-12T13:59:31Z,1484229571,2017,14,0,12.583,12.583,-71.512,-14.7206,999.3,3.2,-999.0,yes,yes,no,300234062887950,SVP,AWI-USIABP,unknown,South
2017-01-12T15:00:00Z,1484233200,2017,15,0,12.625,12.625,-71.518,-14.7352,999.1,3.5,-999.0,yes,yes,no,300234062887950,SVP,AWI-USIABP,unknown,South
2017-01-12T16:00:28Z,1484236829,2017,16,0,12.667,12.667,-71.5242,-14.7504,999.0,3.3,-999.0,yes,yes,no,300234062887950,SVP,AWI-USIABP,unknown,South
2017-01-12T16:59:31Z,1484240371,2017,17,0,12.708,12.708,-71.5314,-14.7672,998.7,2.7,-999.0,yes,yes,no,300234062887950,SVP,AWI-USIABP,unknown,South
2017-01-12T18:00:00Z,1484244000,2017,18,0,12.75,12.75,-71.539,-14.7858,998.6,1.4,-999.0,yes,yes,no,300234062887950,SVP,AWI-USIABP,unknown,South
2017-01-12T19:00:28Z,1484247629,2017,19,0,12.792,12.792,-71.547,-14.8052,998.5,0.6,-999.0,yes,yes,no,300234062887950,SVP,AWI-USIABP,unknown,South
2017-01-12T19:59:31Z,1484251171,2017,20,0,12.833,12.833,-71.5552,-14.8244,998.5,0.1,-999.0,yes,yes,no,300234062887950,SVP,AWI-USIABP,unknown,South
2017-01-12T21:00:00Z,1484254800,2017,21,0,12.875,12.875,-71.563,-14.843,998.6,-0.2,-999.0,yes,yes,no,300234062887950,SVP,AWI-USIABP,unknown,South
2017-01-12T22:00:28Z,1484258429,2017,22,0,12.917,12.917,-71.5702,-14.86,998.6,-1.0,-999.0,yes,yes,no,300234062887950,SVP,AWI-USIABP,unknown,South
2017-01-12T22:59:31Z,1484261971,2017,23,0,12.958,12.958,-71.5776,-14.8752,998.7,-1.0,-999.0,yes,yes,no,300234062887950,SVP,AWI-USIABP,unknown,South
2017-01-13T00:00:00Z,1484265600,2017,0,0,13.0,13.0,-71.585,-14.888,998.7,-1.2,-999.0,yes,yes,no,300234062887950,SVP,AWI-USIABP,unknown,South
2017-01-13T01:00:28Z,1484269229,2017,1,0,13.042,13.042,-71.592,-14.9008,998.7,-1.5,-999.0,yes,yes,no,300234062887950,SVP,AWI-USIABP,unknown,South
2017-01-13T01:59:31Z,1484272771,2017,2,0,13.083,13.083,-71.5996,-14.9152,998.7,-2.2,-999.0,yes,yes,no,300234062887950,SVP,AWI-USIABP,unknown,South
2017-01-13T03:00:00Z,1484276400,2017,3,0,13.125,13.125,-71.6076,-14.933,998.6,-2.4,-999.0,yes,yes,no,300234062887950,SVP,AWI-USIABP,unknown,South
2017-01-13T04:00:28Z,1484280029,2017,4,0,13.167,13.167,-71.6162,-14.955,998.6,-2.4,-999.0,yes,yes,no,300234062887950,SVP,AWI-USIABP,unknown,South
2017-01-13T04:59:31Z,1484283571,2017,5,0,13.208,13.208,-71.6252,-14.982,998.3,-2.2,-999.0,yes,yes,no,300234062887950,SVP,AWI-USIABP,unknown,South
2017-01-13T06:00:00Z,1484287200,2017,6,0,13.25,13.25,-71.6346,-15.0102,998.3,-1.8,-999.0,yes,yes,no,300234062887950,SVP,AWI-USIABP,unknown,South
2017-01-13T07:00:28Z,1484290829,2017,7,0,13.292,13.292,-71.6446,-15.0418,998.2,-1.1,-999.0,yes,yes,no,300234062887950,SVP,AWI-USIABP,unknown,South
2017-01-13T07:59:31Z,1484294371,2017,8,0,13.333,13.333,-71.656,-15.0788,998.4,-0.6,-999.0,yes,yes,no,300234062887950,SVP,AWI-USIABP,unknown,South
2017-01-13T09:00:00Z,1484298000,2017,9,0,13.375,13.375,-71.667,-15.1176,998.6,-0.3,-999.0,yes,yes,no,300234062887950,SVP,AWI-USIABP,unknown,South
2017-01-13T10:00:28Z,1484301629,2017,10,0,13.417,13.417,-71.678,-15.1592,998.7,-0.1,-999.0,yes,yes,no,300234062887950,SVP,AWI-USIABP,unknown,South
2017-01-13T10:59:31Z,1484305171,2017,11,0,13.458,13.458,-71.6904,-15.2028,998.8,-0.2,-999.0,yes,yes,no,300234062887950,SVP,AWI-USIABP,unknown,South
2017-01-13T12:00:00Z,1484308800,2017,12,0,13.5,13.5,-71.7042,-15.2446,998.8,-0.2,-999.0,yes,yes,no,300234062887950,SVP,AWI-USIABP,unknown,South
2017-01-13T13:00:28Z,1484312429,2017,13,0,13.542,13.542,-71.7186,-15.285,998.6,-0.0,-999.0,yes,yes,no,300234062887950,SVP,AWI-USIABP,unknown,South
2017-01-13T13:59:31Z,1484315971,2017,14,0,13.583,13.583,-71.733,-15.3242,998.6,0.2,-999.0,yes,yes,no,300234062887950,SVP,AWI-USIABP,unknown,South
2017-01-13T15:00:00Z,1484319600,2017,15,0,13.625,13.625,-71.75,-15.3652,998.8,0.6,-999.0,yes,yes,no,300234062887950,SVP,AWI-USIABP,unknown,South
2017-01-13T16:00:28Z,1484323229,2017,16,0,13.667,13.667,-71.7704,-15.4006,998.9,0.5,-999.0,yes,yes,no,300234062887950,SVP,AWI-USIABP,unknown,South
2017-01-13T16:59:31Z,1484326771,2017,17,0,13.708,13.708,-71.7946,-15.4238,999.1,0.5,-999.0,yes,yes,no,300234062887950,SVP,AWI-USIABP,unknown,South
2017-01-13T18:00:00Z,1484330400,2017,18,0,13.75,13.75,-71.8176,-15.4374,998.9,0.6,-999.0,yes,yes,no,300234062887950,SVP,AWI-USIABP,unknown,South
2017-01-13T19:00:28Z,1484334029,2017,19,0,13.792,13.792,-71.8396,-15.4452,999.2,0.3,-999.0,yes,yes,no,300234062887950,SVP,AWI-USIABP,unknown,South
2017-01-13T19:59:31Z,1484337571,2017,20,0,13.833,13.833,-71.8594,-15.4508,999.6,0.1,-999.0,yes,yes,no,300234062887950,SVP,AWI-USIABP,unknown,South
2017-01-13T21:00:00Z,1484341200,2017,21,0,13.875,13.875,-71.8746,-15.4628,999.7,-0.2,-999.0,yes,yes,no,300234062887950,SVP,AWI-USIABP,unknown,South
2017-01-13T22:00:28Z,1484344829,2017,22,0,13.917,13.917,-71.887,-15.4824,999.8,-0.8,-999.0,yes,yes,no,300234062887950,SVP,AWI-USIABP,unknown,South
2017-01-13T22:59:31Z,1484348371,2017,23,0,13.958,13.958,-71.897,-15.5068,999.8,-1.1,-999.0,yes,yes,no,300234062887950,SVP,AWI-USIABP,unknown,South
2017-01-14T00:00:00Z,1484352000,2017,0,0,14.0,14.0,-71.906,-15.5326,999.6,-1.2,-999.0,yes,yes,no,300234062887950,SVP,AWI-USIABP,unknown,South
2017-01-14T01:00:28Z,1484355629,2017,1,0,14.042,14.042,-71.9136,-15.5568,999.5,-1.4,-999.0,yes,yes,no,300234062887950,SVP,AWI-USIABP,unknown,South
2017-01-14T01:59:31Z,1484359171,2017,2,0,14.083,14.083,-71.9202,-15.5814,999.3,-1.5,-999.0,yes,yes,no,300234062887950,SVP,AWI-USIABP,unknown,South
2017-01-14T03:00:00Z,1484362800,2017,3,0,14.125,14.125,-71.9262,-15.605,998.9,-1.5,-999.0,yes,yes,no,300234062887950,SVP,AWI-USIABP,unknown,South
2017-01-14T04:00:28Z,1484366429,2017,4,0,14.167,14.167,-71.9328,-15.6296,998.7,-1.6,-999.0,yes,yes,no,300234062887950,SVP,AWI-USIABP,unknown,South
2017-01-14T04:59:31Z,1484369971,2017,5,0,14.208,14.208,-71.9396,-15.658,998.3,-1.2,-999.0,yes,yes,no,300234062887950,SVP,AWI-USIABP,unknown,South
2017-01-14T06:00:00Z,1484373600,2017,6,0,14.25,14.25,-71.947,-15.6892,998.0,-1.3,-999.0,yes,yes,no,300234062887950,SVP,AWI-USIABP,unknown,South
2017-01-14T07:00:28Z,1484377229,2017,7,0,14.292,14.292,-71.9546,-15.7208,997.8,-1.0,-999.0,yes,yes,no,300234062887950,SVP,AWI-USIABP,unknown,South
2017-01-14T07:59:31Z,1484380771,2017,8,0,14.333,14.333,-71.9616,-15.7526,997.7,-0.6,-999.0,yes,yes,no,300234062887950,SVP,AWI-USIABP,unknown,South
2017-01-14T09:00:00Z,1484384400,2017,9,0,14.375,14.375,-71.968,-15.7838,997.7,-0.4,-999.0,yes,yes,no,300234062887950,SVP,AWI-USIABP,unknown,South
2017-01-14T10:00:28Z,1484388029,2017,10,0,14.417,14.417,-71.9744,-15.8142,997.4,0.0,-999.0,yes,yes,no,300234062887950,SVP,AWI-USIABP,unknown,South
2017-01-14T10:59:31Z,1484391571,2017,11,0,14.458,14.458,-71.9802,-15.843,997.3,0.3,-999.0,yes,yes,no,300234062887950,SVP,AWI-USIABP,unknown,South
2017-01-14T12:00:00Z,1484395200,2017,12,0,14.5,14.5,-71.9854,-15.868,997.2,0.5,-999.0,yes,yes,no,300234062887950,SVP,AWI-USIABP,unknown,South
2017-01-14T13:00:28Z,1484398829,2017,13,0,14.542,14.542,-71.9892,-15.8902,997.1,0.9,-999.0,yes,yes,no,300234062887950,SVP,AWI-USIABP,unknown,South
2017-01-14T13:59:31Z,1484402371,2017,14,0,14.583,14.583,-71.9926,-15.9122,996.8,0.9,-999.0,yes,yes,no,300234062887950,SVP,AWI-USIABP,unknown,South
2017-01-14T15:00:00Z,1484406000,2017,15,0,14.625,14.625,-71.9968,-15.9356,996.5,1.1,-999.0,yes,yes,no,300234062887950,SVP,AWI-USIABP,unknown,South
2017-01-14T16:00:28Z,1484409629,2017,16,0,14.667,14.667,-72.0016,-15.9598,996.3,0.9,-999.0,yes,yes,no,300234062887950,SVP,AWI-USIABP,unknown,South
2017-01-14T16:59:31Z,1484413171,2017,17,0,14.708,14.708,-72.0074,-15.9844,996.1,1.2,-999.0,yes,yes,no,300234062887950,SVP,AWI-USIABP,unknown,South
2017-01-14T18:00:00Z,1484416800,2017,18,0,14.75,14.75,-72.0136,-16.0092,996.0,1.0,-999.0,yes,yes,no,300234062887950,SVP,AWI-USIABP,unknown,South
2017-01-14T19:00:28Z,1484420429,2017,19,0,14.792,14.792,-72.0192,-16.0312,995.9,1.2,-999.0,yes,yes,no,300234062887950,SVP,AWI-USIABP,unknown,South
2017-01-14T19:59:31Z,1484423971,2017,20,0,14.833,14.833,-72.0244,-16.0528,995.7,0.8,-999.0,yes,yes,no,300234062887950,SVP,AWI-USIABP,unknown,South
2017-01-14T21:00:00Z,1484427600,2017,21,0,14.875,14.875,-72.029,-16.07,995.6,0.5,-999.0,yes,yes,no,300234062887950,SVP,AWI-USIABP,unknown,South
2017-01-14T22:00:28Z,1484431229,2017,22,0,14.917,14.917,-72.033,-16.0836,995.2,0.2,-999.0,yes,yes,no,300234062887950,SVP,AWI-USIABP,unknown,South
2017-01-14T22:59:31Z,1484434771,2017,23,0,14.958,14.958,-72.036,-16.0932,995.4,0.2,-999.0,yes,yes,no,300234062887950,SVP,AWI-USIABP,unknown,South
2017-01-15T00:00:00Z,1484438400,2017,0,0,15.0,15.0,-72.0382,-16.101,995.4,0.0,-999.0,yes,yes,no,300234062887950,SVP,AWI-USIABP,unknown,South
2017-01-15T01:00:28Z,1484442029,2017,1,0,15.042,15.042,-72.0392,-16.106,995.2,-0.1,-999.0,yes,yes,no,300234062887950,SVP,AWI-USIABP,unknown,South
2017-01-15T01:59:31Z,1484445571,2017,2,0,15.083,15.083,-72.04,-16.1118,995.2,-0.2,-999.0,yes,yes,no,300234062887950,SVP,AWI-USIABP,unknown,South
2017-01-15T03:00:00Z,1484449200,2017,3,0,15.125,15.125,-72.0412,-16.1198,995.0,-0.2,-999.0,yes,yes,no,300234062887950,SVP,AWI-USIABP,unknown,South
2017-01-15T04:00:28Z,1484452829,2017,4,0,15.167,15.167,-72.043,-16.1306,994.9,-0.1,-999.0,yes,yes,no,300234062887950,SVP,AWI-USIABP,unknown,South
2017-01-15T04:59:31Z,1484456371,2017,5,0,15.208,15.208,-72.0452,-16.1426,994.9,-0.1,-999.0,yes,yes,no,300234062887950,SVP,AWI-USIABP,unknown,South
2017-01-15T06:00:00Z,1484460000,2017,6,0,15.25,15.25,-72.0478,-16.1558,995.1,-0.1,-999.0,yes,yes,no,300234062887950,SVP,AWI-USIABP,unknown,South
2017-01-15T07:00:28Z,1484463629,2017,7,0,15.292,15.292,-72.0506,-16.1692,995.1,0.1,-999.0,yes,yes,no,300234062887950,SVP,AWI-USIABP,unknown,South
2017-01-15T07:59:31Z,1484467171,2017,8,0,15.333,15.333,-72.0534,-16.183,995.2,0.3,-999.0,yes,yes,no,300234062887950,SVP,AWI-USIABP,unknown,South
2017-01-15T09:00:00Z,1484470800,2017,9,0,15.375,15.375,-72.0562,-16.1982,995.2,0.7,-999.0,yes,yes,no,300234062887950,SVP,AWI-USIABP,unknown,South
2017-01-15T10:00:28Z,1484474429,2017,10,0,15.417,15.417,-72.058,-16.2146,995.6,0.9,-999.0,yes,yes,no,300234062887950,SVP,AWI-USIABP,unknown,South
2017-01-15T10:59:31Z,1484477971,2017,11,0,15.458,15.458,-72.0586,-16.2322,995.7,1.3,-999.0,yes,yes,no,300234062887950,SVP,AWI-USIABP,unknown,South
2017-01-15T12:00:00Z,1484481600,2017,12,0,15.5,15.5,-72.059,-16.2484,996.0,1.2,-999.0,yes,yes,no,300234062887950,SVP,AWI-USIABP,unknown,South
2017-01-15T13:00:28Z,1484485229,2017,13,0,15.542,15.542,-72.0602,-16.2632,996.2,1.4,-999.0,yes,yes,no,300234062887950,SVP,AWI-USIABP,unknown,South
2017-01-15T13:59:31Z,1484488771,2017,14,0,15.583,15.583,-72.062,-16.28,996.4,1.1,-999.0,yes,yes,no,300234062887950,SVP,AWI-USIABP,unknown,South
2017-01-15T15:00:00Z,1484492400,2017,15,0,15.625,15.625,-72.0652,-16.2996,996.7,1.0,-999.0,yes,yes,no,300234062887950,SVP,AWI-USIABP,unknown,South
2017-01-15T16:00:28Z,1484496029,2017,16,0,15.667,15.667,-72.0698,-16.321,996.8,0.7,-999.0,yes,yes,no,300234062887950,SVP,AWI-USIABP,unknown,South
2017-01-15T16:59:31Z,1484499571,2017,17,0,15.708,15.708,-72.0764,-16.3434,997.1,0.8,-999.0,yes,yes,no,300234062887950,SVP,AWI-USIABP,unknown,South
2017-01-15T18:00:00Z,1484503200,2017,18,0,15.75,15.75,-72.0842,-16.3636,997.3,0.7,-999.0,yes,yes,no,300234062887950,SVP,AWI-USIABP,unknown,South
2017-01-15T19:00:28Z,1484506829,2017,19,0,15.792,15.792,-72.0926,-16.3858,997.6,0.6,-999.0,yes,yes,no,300234062887950,SVP,AWI-USIABP,unknown,South
2017-01-15T19:59:31Z,1484510371,2017,20,0,15.833,15.833,-72.102,-16.41,997.9,0.4,-999.0,yes,yes,no,300234062887950,SVP,AWI-USIABP,unknown,South
2017-01-15T21:00:00Z,1484514000,2017,21,0,15.875,15.875,-72.1124,-16.4322,998.0,0.3,-999.0,yes,yes,no,300234062887950,SVP,AWI-USIABP,unknown,South
2017-01-15T22:00:28Z,1484517629,2017,22,0,15.917,15.917,-72.1234,-16.4532,998.5,0.2,-999.0,yes,yes,no,300234062887950,SVP,AWI-USIABP,unknown,South
2017-01-15T22:59:31Z,1484521171,2017,23,0,15.958,15.958,-72.1348,-16.4706,998.8,0.2,-999.0,yes,yes,no,300234062887950,SVP,AWI-USIABP,unknown,South
2017-01-16T00:00:00Z,1484524800,2017,0,0,16.0,16.0,-72.1468,-16.4874,999.0,0.0,-999.0,yes,yes,no,300234062887950,SVP,AWI-USIABP,unknown,South
2017-01-16T01:00:28Z,1484528429,2017,1,0,16.042,16.042,-72.16,-16.504,999.3,-0.1,-999.0,yes,yes,no,300234062887950,SVP,AWI-USIABP,unknown,South
2017-01-16T01:59:31Z,1484531971,2017,2,0,16.083,16.083,-72.1734,-16.5182,999.4,-0.3,-999.0,yes,yes,no,300234062887950,SVP,AWI-USIABP,unknown,South
2017-01-16T03:00:00Z,1484535600,2017,3,0,16.125,16.125,-72.185,-16.5334,999.4,-0.3,-999.0,yes,yes,no,300234062887950,SVP,AWI-USIABP,unknown,South
2017-01-16T04:00:28Z,1484539229,2017,4,0,16.167,16.167,-72.1956,-16.5472,999.4,-0.3,-999.0,yes,yes,no,300234062887950,SVP,AWI-USIABP,unknown,South
2017-01-16T04:59:31Z,1484542771,2017,5,0,16.208,16.208,-72.206,-16.5656,999.5,-0.2,-999.0,yes,yes,no,300234062887950,SVP,AWI-USIABP,unknown,South
2017-01-16T06:00:00Z,1484546400,2017,6,0,16.25,16.25,-72.2178,-16.5944,999.4,-0.1,-999.0,yes,yes,no,300234062887950,SVP,AWI-USIABP,unknown,South
2017-01-16T07:00:28Z,1484550029,2017,7,0,16.292,16.292,-72.231,-16.6302,999.6,-0.1,-999.0,yes,yes,no,300234062887950,SVP,AWI-USIABP,unknown,South
2017-01-16T07:59:31Z,1484553571,2017,8,0,16.333,16.333,-72.2468,-16.6626,999.8,-0.1,-999.0,yes,yes,no,300234062887950,SVP,AWI-USIABP,unknown,South
2017-01-16T09:00:00Z,1484557200,2017,9,0,16.375,16.375,-72.2642,-16.6966,1000.0,0.2,-999.0,yes,yes,no,300234062887950,SVP,AWI-USIABP,unknown,South
2017-01-16T10:00:28Z,1484560829,2017,10,0,16.417,16.417,-72.2818,-16.7314,999.9,0.2,-999.0,yes,yes,no,300234062887950,SVP,AWI-USIABP,unknown,South
2017-01-16T10:59:31Z,1484564371,2017,11,0,16.458,16.458,-72.2982,-16.765,999.9,1.1,-999.0,yes,yes,no,300234062887950,SVP,AWI-USIABP,unknown,South
2017-01-16T12:00:00Z,1484568000,2017,12,0,16.5,16.5,-72.3112,-16.803,1000.0,1.6,-999.0,yes,yes,no,300234062887950,SVP,AWI-USIABP,unknown,South
2017-01-16T13:00:28Z,1484571629,2017,13,0,16.542,16.542,-72.3226,-16.8424,999.9,2.1,-999.0,yes,yes,no,300234062887950,SVP,AWI-USIABP,unknown,South
2017-01-16T13:59:31Z,1484575171,2017,14,0,16.583,16.583,-72.333,-16.8816,999.9,1.6,-999.0,yes,yes,no,300234062887950,SVP,AWI-USIABP,unknown,South
2017-01-16T15:00:00Z,1484578800,2017,15,0,16.625,16.625,-72.3414,-16.9194,999.7,1.4,-999.0,yes,yes,no,300234062887950,SVP,AWI-USIABP,unknown,South
2017-01-16T16:00:28Z,1484582429,2017,16,0,16.667,16.667,-72.349,-16.9552,999.4,1.8,-999.0,yes,yes,no,300234062887950,SVP,AWI-USIABP,unknown,South
2017-01-16T16:59:31Z,1484585971,2017,17,0,16.708,16.708,-72.3554,-16.9906,999.2,2.5,-999.0,yes,yes,no,300234062887950,SVP,AWI-USIABP,unknown,South
2017-01-16T18:00:00Z,1484589600,2017,18,0,16.75,16.75,-72.3612,-17.0278,998.9,2.1,-999.0,yes,yes,no,300234062887950,SVP,AWI-USIABP,unknown,South
2017-01-16T19:00:28Z,1484593229,2017,19,0,16.792,16.792,-72.3664,-17.0674,998.8,1.9,-999.0,yes,yes,no,300234062887950,SVP,AWI-USIABP,unknown,South
2017-01-16T19:59:31Z,1484596771,2017,20,0,16.833,16.833,-72.3706,-17.1088,998.7,1.0,-999.0,yes,yes,no,300234062887950,SVP,AWI-USIABP,unknown,South
2017-01-16T21:00:00Z,1484600400,2017,21,0,16.875,16.875,-72.374,-17.1516,998.3,0.8,-999.0,yes,yes,no,300234062887950,SVP,AWI-USIABP,unknown,South
2017-01-16T22:00:28Z,1484604029,2017,22,0,16.917,16.917,-72.3768,-17.1962,998.1,1.5,-999.0,yes,yes,no,300234062887950,SVP,AWI-USIABP,unknown,South
2017-01-16T22:59:31Z,1484607571,2017,23,0,16.958,16.958,-72.3788,-17.242,997.9,1.3,-999.0,yes,yes,no,300234062887950,SVP,AWI-USIABP,unknown,South
2017-01-17T00:00:00Z,1484611200,2017,0,0,17.0,17.0,-72.3802,-17.287,997.6,0.7,-999.0,yes,yes,no,300234062887950,SVP,AWI-USIABP,unknown,South
2017-01-17T01:00:28Z,1484614829,2017,1,0,17.042,17.042,-72.3814,-17.329,997.3,0.4,-999.0,yes,yes,no,300234062887950,SVP,AWI-USIABP,unknown,South
2017-01-17T01:59:31Z,1484618371,2017,2,0,17.083,17.083,-72.3824,-17.3668,997.0,0.3,-999.0,yes,yes,no,300234062887950,SVP,AWI-USIABP,unknown,South
2017-01-17T03:00:00Z,1484622000,2017,3,0,17.125,17.125,-72.3826,-17.4008,996.8,-0.1,-999.0,yes,yes,no,300234062887950,SVP,AWI-USIABP,unknown,South
2017-01-17T04:00:28Z,1484625629,2017,4,0,17.167,17.167,-72.382,-17.4314,996.4,-0.1,-999.0,yes,yes,no,300234062887950,SVP,AWI-USIABP,unknown,South
2017-01-17T04:59:31Z,1484629171,2017,5,0,17.208,17.208,-72.3806,-17.4604,996.2,0.1,-999.0,yes,yes,no,300234062887950,SVP,AWI-USIABP,unknown,South
2017-01-17T06:00:00Z,1484632800,2017,6,0,17.25,17.25,-72.379,-17.4872,996.0,0.3,-999.0,yes,yes,no,300234062887950,SVP,AWI-USIABP,unknown,South
2017-01-17T07:00:28Z,1484636429,2017,7,0,17.292,17.292,-72.3774,-17.5144,996.1,0.8,-999.0,yes,yes,no,300234062887950,SVP,AWI-USIABP,unknown,South